Flag for U.S.A. Weather past 2 weeks in Odessa, Texas, U.S.A.

Now
91 °F

Passing clouds.


Feels Like: 90 °F
Forecast: 78 / 102 °F
Wind: 7 mph from South

Location: Odessa-Schlemeyer Field

Current Time: Aug 4, 2015 at 10:21:31 PM

Latest Report: Aug 4, 2015 at 9:53 PM


Visibility: 10 mi

Pressure: 29.82 "Hg (27.02 "Hg at 882m altitude)

Humidity: 34%

Dew point: 59 °F

Location of OdessaLocation

Historic Weather in Odessa — Graph

°F

Odessa temperature yesterday

Maximum temperature yesterday: 99 °F (at 3:53 PM)
Minimum temperature yesterday: 70 °F (at 10:53 PM)
Average temperature yesterday: 84 °F

Past Weeks' High & Low Weather Summary

 TemperatureHumidityPressure
High102 °F (Jul 27, 4:53 PM)90% (Aug 3, 10:53 PM)30.06 "Hg (Aug 3, 10:53 PM)
Low70 °F (Aug 3, 10:53 PM)18% (Jul 26, 5:53 PM)29.70 "Hg (Jul 27, 6:53 PM)
Average87 °F42%29.86 "Hg
* Reported Jul 20 8:53 PM — Aug 4 8:53 PM, Odessa, Weather by CustomWeather, © 2015

Note: Actual official high and low records may vary slightly from our data, if they occured in-between our weather recording intervals... More about our weather records

Advertising

Odessa weather history for previous 24 hours

 ConditionsComfort  
Time TempWeatherWind HumidityBarometerVisibility
8:53 PM
Tue, Aug 4
93 °FSunny.12 mph31%29.80 "Hg10 mi
7:53 PM97 °FPartly sunny.5 mph24%29.78 "Hg10 mi
6:53 PM98 °FSunny.No wind20%29.78 "Hg10 mi
5:53 PM98 °FSunny.No wind21%29.78 "Hg10 mi
4:53 PM98 °FSunny.8 mph23%29.80 "Hg10 mi
3:53 PM97 °FSunny.7 mph25%29.81 "Hg10 mi
2:53 PM95 °FSunny.5 mph29%29.84 "Hg10 mi
1:53 PM92 °FSunny.9 mph36%29.86 "Hg10 mi
12:53 PM90 °FSunny.9 mph38%29.88 "Hg10 mi
11:53 AM87 °FSunny.8 mph46%29.90 "Hg10 mi
10:53 AM84 °FSunny.13 mph53%29.91 "Hg10 mi
9:53 AM80 °FSunny.10 mph60%29.91 "Hg10 mi
8:53 AM76 °FSunny.7 mph69%29.89 "Hg10 mi
7:53 AM71 °FFog.No wind87%29.89 "Hg6 mi
6:53 AM70 °FClear.3 mph90%29.87 "Hg8 mi
5:53 AM71 °FMild.3 mph87%29.86 "Hg9 mi
4:53 AM71 °FClear.5 mph87%29.85 "Hg10 mi
3:53 AM72 °FClear.6 mph84%29.84 "Hg10 mi
2:53 AM72 °FPassing clouds.8 mph84%29.84 "Hg10 mi
1:53 AM72 °FPassing clouds.8 mph84%29.85 "Hg10 mi
12:53 AM72 °FPassing clouds.7 mph84%29.88 "Hg10 mi
11:53 PM
Mon, Aug 3
71 °FThundershowers. Mostly cloudy.8 mph87%29.91 "Hg10 mi
10:53 PM70 °FHeavy rain. Fog.18 mph90%29.92 "Hg4 mi
Weather by CustomWeather, © 2015

See weather overviewHow to use our weather pages